CAPE
1986 2774 2970 2814 2780 2716 2316 2327 1766 1774 1466 1394 1432 1199 1146 1218 976 766 1076 1103 1042 1212 1697 2005 2482 2580 2252 2407 2042 2252 2845 2762 2491 3121 3333 3710 3672 3396 3317 3957 3333 3530 3593 3294 2557 2792 3320 2782 3184 3163 3484 3578 3874 3481 2982 3044 3373 3278 3355 3522 3555 4157 4194 4336 3998 4186 4493 4325 4363 3578 2827 3188 2574 3015 2982 3539 3712 4899 4047 4872 4724 4195 3742 3324 4760
2520 2517 2906 1915 2319 2407 2614 2175 2045 1792 1410 1103 1241 1232 1151 1152 1373 1112 790 1152 1014 795 1396 1130 1764 2237 2155 2439 2204 2125 2969 3152 2229 2191 2984 3245 3203 2500 2585 3110 3798 3502 3433 3597 3362 2874 3047 3191 3279 3161 3749 3500 2931 2413 2518 1949 1888 1974 2845 2740 3119 3532 3781 3823 4161 3881 3874 4244 4513 4720 4041 3441 2878 3848 4349 4451 3947 3839 4030 4005 3921 3531 3946 3703 4892
2320 3032 3066 2401 2392 1952 2684 2684 2400 1726 1320 864 765 674 885 871 1155 1120 569 543 854 898 1366 1123 1620 2148 2151 2370 2697 2188 2876 2525 2198 2318 2533 3023 2975 2375 1983 2667 2790 2946 3204 3447 3127 3141 3086 3031 2908 3001 2415 2562 3086 2495 1889 1804 1666 1904 1931 2294 3091 2598 3636 3523 3665 3908 3791 3971 4088 3444 3442 4309 3739 3658 3828 3878 4051 4318 4010 3848 3676 3102 2908 2800 3189
1827 1965 2068 2293 2633 1243 1979 2537 2375 1701 1376 973 770 742 677 719 1122 911 629 414 522 839 966 1264 1942 2223 2198 2644 2831 2142 2461 2405 2083 2121 3036 2982 2922 3121 3326 3149 2748 2626 2702 2762 2725 2849 2650 2900 2602 2393 2643 2884 3115 2775 3070 2917 2835 3112 2545 2313 2207 2089 2176 2700 4683 4552 4292 4054 4440 4298 3964 3919 4147 4075 3937 3780 3717 4008 4156 3791 3774 3321 3399 2823 2032
1873 1526 1727 1906 2130 1535 1095 1447 2173 2142 1592 934 768 643 552 598 825 754 609 262 412 559 899 1459 1988 2157 1624 1949 2495 2386 2227 2319 2525 2084 2174 2272 2705 2606 2779 2992 2893 2764 2658 2822 2860 2859 2737 2295 2335 2352 2455 2310 2575 2638 2397 2609 2594 2158 2275 2607 2963 3210 3081 2962 3012 3271 3660 3849 3929 4261 4823 4716 4431 4552 4440 3975 4232 4567 4711 4776 4527 3299 3100 2522 1834
1510 1198 2348 1946 1764 1858 1300 1235 1388 1725 1606 1352 726 780 536 457 665 1023 648 480 325 537 851 810 1439 2032 1581 1501 1820 2270 2291 2396 2594 2556 2156 2000 2249 2365 2876 3097 2535 2322 2376 2609 2636 2443 2048 2368 2254 2457 2244 2257 1945 1851 2261 2399 2839 2649 2317 2550 2920 3234 4045 3996 3898 4351 4300 4168 4102 3989 4089 4036 3934 4267 4656 5000 4063 3316 3940 4880 4487 4141 3978 3652 2321
2216 2048 1925 2064 1760 1758 1889 1798 1254 1694 1541 1132 625 612 529 345 305 655 906 745 350 174 513 765 874 1718 1904 1786 1654 1985 2428 2454 2728 2926 2589 2244 2199 2163 2086 2626 2588 2407 2103 1865 1645 1740 1705 1536 1686 1702 1659 1783 1592 1516 2007 2587 2352 2148 2736 3706 3609 3308 2893 2898 3585 4361 4284 4122 4098 4190 4324 4468 4187 3796 4178 4424 5078 4970 4212 4128 4470 4758 4758 4706 5100
657 1189 2019 1799 1504 1414 1524 1519 1101 1520 1982 1602 1341 526 349 273 251 428 775 652 404 199 46 509 891 915 1724 1809 1878 2054 2465 2421 2722 3154 2914 2510 2291 2274 2240 2095 1960 2066 1796 1822 1525 1139 1149 1085 766 1055 1223 1478 1490 1498 1608 1633 2086 2108 2435 2872 2938 3036 3010 3201 3572 3510 3472 3227 3600 3682 3890 4221 4509 3959 3019 2473 2348 2759 3369 2944 3289 4558 5209 5510 3268
1567 1819 2119 1765 1473 1748 1440 1410 1417 1169 1342 2113 2192 1523 1085 843 844 834 1023 506 305 264 127 11 530 690 938 1524 1769 1780 1775 2078 2009 2510 2787 2829 2409 1667 1598 1778 1830 1750 1581 1177 1250 1196 933 696 618 608 1119 2165 1708 1521 1192 1335 1218 1494 2108 2528 3325 3802 4131 3982 3772 3818 3786 3680 3501 3687 3643 3627 3672 3512 3366 3530 3430 3040 3194 3838 3596 4065 4170 3288 4284
1336 1509 1311 1358 1570 1683 2228 1163 1132 1463 1307 1186 884 846 894 1825 434 1002 914 931 1024 857 556 502 233 820 958 1429 1669 1403 1365 1356 1679 1445 1783 2296 2386 1607 1143 1220 1334 1412 1620 1339 931 1010 712 501 430 1020 1480 2727 2498 1457 1113 1147 1449 1188 1652 3104 3858 3773 3735 3875 4084 4242 4354 4200 3721 3400 3215 3102 3035 2867 3063 3121 3119 3381 3462 3674 3986 4254 4228 4513 4626
1514 1578 1817 1776 1691 1858 2192 1583 1439 1300 1620 1638 1572 1644 1697 1353 990 1974 2300 1853 1486 2320 1896 1044 465 140 775 1008 1222 934 897 819 959 1264 1339 1502 1989 2169 1563 1379 1374 1497 1475 1575 1192 633 429 466 480 1034 1594 1803 2709 2570 1146 893 965 1210 1336 1774 2772 3668 3953 4035 3766 3804 4011 4033 3944 3570 2998 2772 2591 2170 1893 1623 1280 975 1241 2120 3242 3448 3356 3309 3219
940 1286 1454 1464 1642 1537 1803 2258 2091 2052 2133 1818 1856 1897 1931 1556 1540 1365 1962 2379 2686 2037 1384 1645 1559 871 240 333 568 830 1115 832 120 422 1072 1263 1462 1846 1719 1354 1002 1267 1312 1038 1123 938 561 273 147 49 116 603 715 2119 1697 1064 853 893 922 926 974 1323 1895 2882 3705 4211 4168 3941 3855 3502 2948 2701 2830 2919 2634 1600 1723 2028 2769 2317 2017 2042 2287 2492 2630
783 814 938 1013 1097 1544 1540 1580 1899 2150 2126 2144 2186 1659 1655 1897 1711 1766 1837 2073 2285 2596 2010 1757 1833 1670 1072 1063 796 583 920 764 79 0 0 892 1156 1215 1221 1145 784 428 490 875 737 779 861 686 457 287 34 447 1492 815 1896 1611 809 732 844 865 816 743 687 626 780 2004 2961 3654 3472 3244 3387 3569 3540 3563 3096 2524 3305 3476 3419 3346 2848 3068 3134 2669 2907
655 800 702 745 838 898 992 1206 1131 1734 1954 1971 2243 2489 2076 1660 1965 2092 2182 2072 1869 1756 2116 2233 2050 2369 1928 1697 1799 1361 829 504 0 0 0 0 358 934 1172 686 555 383 334 371 430 638 921 1106 1126 961 740 559 564 1034 2076 3058 1973 1374 1002 992 1391 1370 989 714 390 4 320 681 1225 1949 2289 2520 2632 2993 3700 3886 3724 3436 3274 2998 2467 2251 2348 2523 2926
886 842 744 728 687 632 696 816 1045 1059 1430 2218 2268 2256 2257 2113 1905 2036 2041 2212 2185 2176 1999 1757 1841 2255 2196 2001 2143 1942 1242 1038 176 0 0 0 0 25 913 823 340 266 292 359 634 544 904 1321 1118 983 1011 1026 1093 1082 982 1844 3891 3421 2553 1963 1704 1697 1776 1739 1468 981 646 456 479 568 1032 1646 2020 2270 2553 3388 3573 3670 3449 3332 3468 3423 3716 3768 3620
649 700 810 836 768 750 672 642 889 789 889 1127 1929 2420 2429 2327 2282 2211 2088 1831 2160 2333 2307 1709 1496 1585 1761 1665 1673 1785 1690 1492 1214 538 0 0 346 0 588 1036 791 574 719 793 658 648 564 562 1120 1738 1569 1583 1688 1376 1478 1574 1562 2557 4036 4141 3773 3263 3125 3079 2680 2084 1606 1125 793 475 368 568 869 1228 1590 1723 1956 3212 4200 3966 3544 3245 3001 3010 3128
420 442 526 590 642 747 770 850 762 644 630 907 1242 1683 2149 2492 2498 2328 2084 1864 1722 1933 2001 1830 1988 1770 1916 2010 1806 1579 1634 1886 1748 1442 1016 864 664 25 478 901 1133 1056 1027 1371 1678 1742 1539 1146 876 462 567 1288 1914 1834 1566 1297 1786 1722 1848 2451 3057 3194 3667 3886 3656 3540 3238 2887 2578 2307 1792 1230 503 605 908 1165 1279 1774 2428 2916 3257 3304 3136 3281 3197
156 192 233 273 280 300 304 581 842 775 668 646 904 1444 1586 1896 2430 2558 2028 1880 1879 1791 1922 2206 1945 1652 1503 1479 1354 1654 2006 1984 1814 1826 1569 1211 974 784 420 914 1203 1420 1461 1563 1699 1820 1980 2307 2384 1775 1329 1012 752 1029 1682 1771 1957 2200 2064 1992 2143 2536 2891 2948 2950 2976 3044 2963 2784 2531 2208 1910 1607 1434 1249 1052 844 985 1355 1559 1812 1960 2108 2053 1768
79 76 86 98 106 211 407 347 315 434 645 671 676 807 1243 1382 1607 1823 2232 2205 2088 2125 2316 2231 2089 2022 1977 1702 1671 1705 1890 1810 1807 1922 1777 1585 1319 1023 817 1033 1201 1494 1482 1586 1727 1736 1916 2112 2350 2260 2026 1887 1254 1006 1194 1463 2030 2341 2446 2304 2018 1838 1810 2282 3124 3131 2745 2460 2514 2511 2436 2283 2108 1891 1714 1526 1332 1067 1251 1770 2059 1954 1681 1582 1344
1 2 0 0 0 0 0 224 349 352 360 448 592 662 1076 1371 1342 1755 2129 2376 2374 2047 1884 1824 1791 1789 1690 1580 1507 1203 1378 1891 2278 1753 1926 1833 1648 1406 1430 1460 1355 1472 1585 1568 1705 1966 2102 2192 2195 1675 1465 1334 1366 1422 1384 1372 1741 2509 2672 2463 2186 2168 2041 2344 2639 2548 2495 2812 2978 2551 2322 2202 2135 2138 2124 1992 1921 1831 1845 1772 1654 1924 1904 1836 1716
0 0 0 0 0 0 0 0 0 174 325 377 395 517 602 775 1397 1696 1699 1621 1620 1680 1693 1835 1806 2018 2048 1844 1587 1476 1513 1530 1326 1275 1467 1608 1807 1657 1397 1638 1653 1719 1994 1832 1823 1812 2104 2442 2362 2242 1822 1516 1272 1131 1148 1331 1511 2004 2687 2639 2413 2351 2443 2703 2805 3656 3104 2820 2518 2541 3337 2902 2692 2645 2556 2486 2434 2449 2508 2458 2249 1953 1847 1911 1777
0 0 0 0 0 0 0 0 0 0 178 376 424 484 539 596 652 1140 1969 2024 1714 1406 1322 1417 1488 1406 1716 1893 1790 1773 1954 2003 2098 1538 1074 1443 1481 1616 1552 1790 1585 1918 2060 2091 2024 2054 2180 2391 2880 2706 2197 1976 1898 1818 1716 1653 1600 1525 1989 2081 2287 2297 2246 2689 3193 3348 3308 3142 3348 3304 2785 2576 3143 3330 3276 3230 3096 2991 2927 2922 2844 2634 2270 1855 1674
0 0 0 0 0 0 0 0 0 0 0 94 343 475 546 545 571 837 964 1566 1935 1599 1260 1224 1440 1599 1613 1647 1610 1405 1612 1820 1710 1647 1406 1715 2198 2004 1596 1448 1430 1744 1644 2104 2360 2352 2630 2884 2918 2832 2623 2447 2253 2144 2083 2054 2052 2047 2001 1954 1892 1922 1953 2104 2311 2556 2560 2457 2395 2436 2621 3045 2897 2446 2361 2410 2437 2397 2461 3096 2988 2821 2720 2550 2176
0 0 0 0 0 0 0 0 0 0 0 10 118 203 340 410 424 828 1071 1367 1720 1952 1749 1633 1314 1363 1364 1400 1469 1665 1667 1490 1431 1644 1853 2006 2086 2110 2059 1711 1540 1502 1554 1796 2210 2231 2439 2782 3008 2653 2556 2468 2421 2400 2344 2314 2264 2220 2202 2211 2174 2120 2016 1892 1680 1874 1996 2012 1930 1941 2078 2271 2351 2540 2573 2555 2406 2184 2436 2371 2635 3221 2739 2504 2272
0 0 0 0 0 0 0 0 0 0 0 0 1 12 38 178 381 596 1043 1131 1592 1863 2602 1610 1202 1089 1279 1417 1558 1715 1923 2233 2329 2042 1887 1730 1755 1850 2048 2007 1893 1733 1608 1722 1780 1772 2034 2012 2249 2255 2308 2307 2382 2470 2496 2476 2409 2380 2367 2314 2258 2208 2156 2026 1839 1678 1715 1760 1729 1718 1725 1690 1849 1967 2154 2510 2667 2800 2693 2953 3125 4057 3484 2917 2429
0 0 0 0 0 0 0 0 0 0 0 0 0 0 0 13 307 974 1137 1066 1391 1806 1912 1259 1056 1038 1213 1361 1891 2244 2521 2576 2120 1644 1650 1430 1443 1382 1418 1798 1869 1823 1734 1592 1745 1820 1853 1867 1890 1944 1975 1951 1967 2014 2105 2174 2235 2232 2217 2186 2191 2175 2136 2068 1982 1863 1728 1485 1488 1500 1606 1674 1666 1724 1757 1880 2038 2218 2673 3094 3422 3072 3927 3616 3067
0 0 0 0 0 0 0 0 0 0 0 0 0 0 2 8 21 171 279 115 235 1161 1308 1326 1226 1266 1219 1115 1347 1685 1868 1992 2179 1799 1699 2014 1713 1266 1239 1230 1149 1236 1353 1560 1693 1492 1437 1523 1662 1754 1795 1857 1868 1928 2007 1975 1826 1871 1884 1885 1960 2044 2043 2023 2001 1956 1865 1824 1748 1479 1479 1668 1904 1958 2024 2029 1955 2190 2462 2425 2497 2580 2627 2939 3448
0 0 0 0 0 0 0 0 0 0 0 0 0 0 0 0 0 33 186 37 29 34 86 507 528 544 777 874 935 1050 1202 1396 1961 1659 1655 1600 1386 1313 1574 1581 1523 1466 1678 2067 2306 2282 2149 1935 1679 1576 1674 1746 1698 1762 1951 2075 2091 1961 1760 1702 1730 1747 1809 1818 1837 1825 1826 1769 1729 1776 1674 1690 1858 1964 2038 2123 2265 2444 2754 2714 2664 2666 2545 2604 2815
0 0 0 0 0 0 0 0 0 0 0 0 0 0 0 0 19 35 0 0 0 0 0 0 0 0 2 154 629 844 944 1079 1266 1293 1375 1492 1546 1533 1607 1517 1484 1588 1849 2102 2168 2075 2031 1978 1932 1822 1650 1564 1570 1771 2004 2105 2149 2172 2044 1859 1631 1509 1528 1608 1610 1652 1668 1654 1645 1695 1800 1818 1742 1912 1790 1828 2001 2166 2564 3110 3206 2988 2922 2853 2714
0 0 0 0 0 0 0 0 0 0 0 0 0 0 0 0 0 0 0 0 0 0 0 0 0 4 0 2 9 22 62 238 484 806 929 1163 1381 1395 1497 1522 1418 1616 1922 2044 1977 1972 2021 2004 1886 1964 1990 2035 1906 1899 1925 1911 1888 2108 1887 1834 1753 1734 1710 1658 1612 1595 1567 1590 1719 1748 1828 1852 1946 1931 1967 1798 1817 1908 2120 2462 3366 3700 3389 3338 3226
0 0 0 0 1 0 0 0 0 0 0 0 0 0 0 0 0 0 0 0 0 0 0 0 0 0 0 0 0 0 0 0 0 0 0 454 788 819 978 1277 1544 1611 1720 1931 2060 2098 2125 2028 2002 2013 2299 2311 2241 2183 2005 2057 1959 1943 2220 2008 1964 1890 1872 1841 1809 1785 1864 1958 1959 1865 1758 1776 1876 1981 2103 1999 1832 1854 1974 1952 2034 2999 3737 3568 3424
0 0 0 0 2 3 1 2 3 4 2 1 0 0 0 0 0 5 0 0 0 0 0 0 0 0 0 0 0 0 0 0 0 0 0 0 0 0 0 173 633 1051 1431 1538 1723 1976 1992 1896 1910 1866 2033 2172 2063 2042 1974 1934 2140 2328 2406 2186 2097 2080 2074 2100 2078 2029 2003 2018 2017 1879 1705 1849 2005 1945 1847 1756 1735 1811 1903 1971 2249 2360 2604 3249 3378
0 0 0 2 1 2 0 9 14 10 5 5 8 6 1 0 0 0 0 0 0 0 0 0 0 0 0 0 0 0 0 0 0 0 0 0 0 0 78 0 100 392 334 764 1336 1604 1760 1779 1708 1745 1770 1784 2122 2225 2342 2044 2012 1940 2193 2384 2450 2481 2245 2488 2269 2277 2204 2025 1912 1857 1788 1688 1710 1657 1578 1476 1505 1483 1554 1603 1739 2057 2268 2380 2578
0 0 2 8 11 10 11 13 10 6 3 4 2 0 0 0 0 0 0 0 0 10 0 0 0 0 0 0 0 0 0 0 0 0 0 0 0 78 535 715 810 849 895 912 932 960 1107 1222 1381 1608 1818 1920 1972 2046 2126 2296 2282 2365 2349 2395 2452 2541 2654 2932 3047 2574 1900 1848 1879 1662 1540 1599 1671 1552 1583 1678 1630 1587 1579 1561 1530 1638 1833 1930 2020
0 0 0 2 4 4 6 9 4 4 4 6 7 5 4 5 3 0 0 0 0 0 0 0 2 0 0 0 0 0 0 0 0 73 370 424 438 454 540 714 912 1075 1194 1278 1288 1306 1258 1230 1325 1427 1600 1826 2005 2136 2260 2424 2422 2311 2338 2432 2589 2582 2695 2722 2506 1843 1586 1441 1624 1565 1509 1475 1382 1260 1323 1398 1448 1541 1630 1611 1587 1562 1649 1758 1777
2 1 0 0 1 2 1 4 10 10 12 11 12 4 7 8 5 4 2 1 0 0 0 0 0 0 0 0 0 0 0 0 364 465 527 678 831 904 865 919 889 864 854 1002 1271 1543 1751 1812 1825 1799 1887 2027 2036 2145 2338 2344 2370 2395 2491 2565 2448 2667 2633 2849 1940 1744 1528 1772 1748 1584 1610 1522 1462 1412 1341 1340 1348 1426 1533 1621 1634 1556 1456 1461 1745
4 5 3 2 5 10 14 15 15 19 11 11 11 11 8 7 5 3 3 2 1 0 0 0 0 0 3 54 79 92 283 544 654 798 836 872 908 1024 1054 1091 1101 1110 1134 1250 1231 1381 1707 2080 2220 2242 2130 2071 1998 2263 2311 2304 2373 2441 2436 2572 2844 2923 2906 2269 1736 1813 1907 1864 1702 1747 1652 1585 1505 1480 1574 1534 1519 1463 1396 1427 1570 1629 1630 1577 1475
7 7 8 12 13 14 11 5 0 0 4 12 18 21 12 6 6 4 1 0 0 0 0 0 0 0 0 61 255 6 6 0 0 8 12 287 471 766 874 1033 1200 1307 1388 1496 1612 1950 1846 1895 1801 1727 1735 1833 1935 2111 2134 2210 2306 2531 2708 3033 3042 2922 2627 2094 1662 1250 1887 2287 2250 2353 2269 2206 2055 1857 1635 1490 1421 1532 1468 1535 1504 1429 1325 1300 1444
2 9 10 10 7 12 4 0 0 0 0 0 0 4 10 11 14 13 17 19 14 7 1 0 0 0 3 72 2 0 0 2 3 32 61 82 117 229 468 663 748 1013 1168 1316 1454 1622 1750 1866 1822 2044 2146 2194 2260 2453 2654 2663 3166 3428 3289 2818 2420 2274 2125 1918 1727 1698 1797 2096 2216 2219 2406 2543 2576 2300 1980 1690 1552 1481 1586 1604 1609 1569 1514 1490 1518
6 6 6 10 14 16 21 17 14 8 6 0 0 0 4 8 7 10 13 12 13 14 13 20 21 23 34 1 0 0 0 0 0 0 0 0 12 171 518 405 546 881 1150 1259 1320 1459 1635 1765 1826 1865 1933 2172 2421 2483 2493 2405 2341 2259 2194 2132 2044 2444 2665 2199 2202 2351 2479 2585 2309 2061 1834 2082 2382 2480 2432 2230 2064 2028 1980 1880 1918 1822 1717 1586 1792
24 21 22 9 11 18 16 20 21 22 18 17 17 14 7 14 11 14 6 3 2 5 8 15 20 24 62 24 2 0 0 0 0 0 0 0 0 8 33 8 86 442 761 1042 1180 1308 1370 1596 1838 1922 1959 2023 2098 2155 2153 2124 2076 2052 2044 2006 1945 1908 1960 1837 1965 2083 2203 2260 2331 2356 2319 2388 2491 2491 2481 2490 2558 2290 2291 2163 2104 2176 2143 1886 1674
18 20 24 21 17 14 12 12 14 32 38 46 42 30 27 28 30 34 34 39 34 33 26 22 21 22 48 0 0 0 0 0 0 0 0 0 4 3 0 0 0 0 9 251 367 492 917 1252 1434 1594 1756 1937 1990 1998 2050 2064 2048 2056 2025 2012 1990 2014 1977 1916 1865 1924 2013 2085 2123 2286 2220 2192 2270 2348 2501 2605 2578 2565 2442 2166 1978 1956 1970 1932 1836
12 16 18 18 19 14 20 17 15 16 22 24 29 34 37 45 39 29 27 28 28 25 29 28 24 24 24 0 0 0 0 0 0 0 2 2 0 0 0 0 0 0 0 36 174 316 402 483 887 1305 1384 1521 1732 1750 1727 1736 1758 1871 1961 2009 1994 1961 1974 1997 2023 2046 2091 2061 2036 2083 2012 1981 2037 2125 2275 2199 2106 2077 2059 1943 1840 1801 1845 1822 1939
9 9 10 12 13 11 17 21 19 19 8 27 38 34 38 50 53 53 47 45 51 48 48 44 29 21 10 3 1 0 0 1 3 0 0 0 0 0 0 0 0 0 0 0 0 0 0 29 218 0 0 298 478 605 741 989 1141 1301 1565 1735 1854 1957 2036 2025 1969 1928 1911 2025 2187 2305 2382 2308 2129 1977 1969 1910 1946 1931 1948 1798 1621 1566 1577 1677 1449
7 8 8 9 12 10 3 18 46 40 32 21 7 8 20 20 26 34 30 31 45 61 46 39 33 10 0 2 3 1 0 0 1 0 0 0 0 0 0 0 0 0 0 0 0 0 0 0 0 0 0 0 1 34 513 652 887 1095 1148 1179 1219 1364 1523 1626 1716 1800 1920 2042 2117 2079 2096 2207 1975 1669 1477 1460 1494 1673 1731 1629 1313 1354 1248 1380 1472
8 10 10 10 10 13 12 9 12 6 17 16 13 11 12 5 26 47 54 39 39 44 31 19 16 8 0 2 2 0 0 0 0 0 0 0 0 0 0 0 0 0 1 0 0 4 21 21 30 34 30 66 268 391 445 560 620 707 791 887 1012 1105 1128 1042 898 906 1048 1227 1537 1676 1857 1972 2098 2120 2059 2170 1572 1530 1545 1710 1690 1872 1897 1610 1432
7 9 10 11 10 13 16 18 16 12 9 3 4 10 20 36 52 84 62 51 48 20 14 14 9 2 2 1 0 0 0 0 0 0 0 0 0 0 0 0 0 0 1 1 1 0 3 14 14 26 66 150 254 341 400 453 549 613 697 759 728 754 802 757 799 820 846 885 957 1069 1150 1236 1333 1379 1543 1467 1479 1557 1686 1687 1680 1711 1675 1629 1638
6 6 7 11 10 11 10 13 15 19 14 8 10 7 37 64 53 32 34 25 14 5 11 9 3 2 0 0 0 0 0 0 0 0 0 0 0 0 0 0 0 0 0 0 1 2 1 8 27 30 17 30 88 7 24 349 432 495 592 628 645 704 649 582 544 507 497 554 671 778 866 936 955 962 991 1029 1092 1154 1192 1198 1206 1252 1311 1338 1353
8 8 8 9 11 10 10 9 15 16 17 17 12 9 18 7 7 6 3 0 0 0 0 0 2 3 2 0 0 0 0 0 0 0 0 1 2 3 2 0 0 0 0 0 0 0 1 1 2 6 16 17 6 0 1 236 444 462 463 432 375 381 320 324 414 477 493 519 563 599 619 629 643 657 644 633 640 673 708 700 728 774 808 868 941
12 15 14 15 16 15 16 20 20 20 26 25 18 13 4 2 4 6 12 12 5 0 0 4 6 3 1 0 0 0 0 0 0 0 0 0 0 0 0 0 0 0 0 0 0 0 0 0 0 0 0 4 10 45 69 104 303 320 295 265 271 280 292 278 250 220 195 198 166 86 74 0 0 0 0 0 89 85 94 113 131 376 515 595 693
19 23 27 30 27 29 28 26 24 17 18 16 12 5 0 2 4 7 9 3 0 0 0 1 2 1 0 0 0 0 0 0 0 0 0 0 0 0 0 1 0 0 0 0 0 0 0 1 0 0 3 31 38 7 26 3 0 194 236 268 276 269 226 158 99 49 0 0 0 0 0 0 0 0 1 1 0 0 0 0 0 0 0 162 262
Wind_Speed
14 19 19 16 14 12 11 12 11 11 9 12 13 13 12 12 10 10 12 12 12 12 11 10 11 9 8 7 6 7 5 4 2 3 2 0 2 2 4 1 2 0 1 2 3 4 4 4 3 3 5 6 6 4 5 4 2 1 1 2 2 2 3 3 5 7 7 7 8 8 7 8 7 8 6 6 7 10 8 8 8 7 8 6 11
18 19 21 19 14 13 11 13 12 12 9 10 11 14 14 13 14 12 12 12 13 12 13 10 10 11 9 10 8 8 8 5 4 3 3 1 1 1 2 3 2 1 1 1 1 3 3 2 2 3 3 3 5 5 3 2 1 1 2 1 1 2 1 2 3 5 7 8 7 7 8 7 6 6 8 10 10 9 9 9 8 7 6 9 15
25 30 31 30 27 17 13 13 13 12 9 10 10 11 13 14 14 13 12 13 13 12 15 12 12 12 10 10 11 9 9 8 5 4 4 3 2 1 0 2 1 0 1 2 2 2 3 2 2 1 1 2 2 4 6 6 7 7 6 5 4 4 3 1 2 4 5 6 7 8 7 8 9 9 9 7 7 8 8 8 8 8 9 7 9
26 28 29 25 29 29 25 14 11 10 10 11 10 10 12 14 15 13 12 12 14 13 14 14 14 14 12 11 13 11 9 9 9 6 5 6 4 3 2 3 4 3 1 2 3 4 4 3 3 3 1 2 3 6 8 8 6 5 5 6 6 6 8 7 5 5 5 6 6 6 7 7 6 6 6 6 5 6 7 7 7 7 8 9 10
19 22 22 21 23 23 24 24 12 10 9 11 11 11 11 13 15 14 14 12 15 16 14 14 16 15 13 11 13 13 11 10 10 9 7 6 7 6 4 3 4 4 4 3 2 2 3 4 4 4 3 2 3 4 6 6 6 6 6 5 4 4 4 3 4 4 5 6 6 5 5 5 5 5 5 4 5 7 8 9 9 11 11 12 12
20 21 21 23 23 22 18 17 17 8 9 10 11 13 12 12 14 16 14 13 14 17 17 14 15 16 14 13 11 12 12 11 11 10 9 9 8 8 7 7 5 5 5 5 4 3 2 2 2 2 2 2 1 0 2 4 7 7 7 7 8 8 7 5 4 5 5 5 6 7 8 6 7 7 8 9 9 9 10 11 12 12 12 13 15
23 21 22 22 20 16 18 19 17 18 11 10 12 14 13 13 14 16 16 15 13 13 18 16 15 16 16 14 12 12 13 12 12 11 9 8 9 10 9 9 8 8 7 6 5 5 4 4 3 2 1 1 1 2 2 3 4 6 7 10 10 9 7 7 8 7 8 7 7 7 7 8 8 7 8 9 9 10 8 9 9 11 10 12 16
28 25 24 25 24 21 22 23 22 20 19 17 16 15 15 15 17 18 19 17 14 12 nan 17 17 16 16 15 13 13 13 12 12 12 11 9 8 9 10 9 9 9 9 9 7 6 7 6 5 6 5 3 2 1 1 1 4 4 5 7 7 7 8 8 9 9 8 9 9 8 9 9 10 10 10 7 4 2 5 6 6 8 11 15 15
28 24 25 24 21 23 29 35 33 34 33 33 28 24 21 20 21 21 21 19 15 13 11 nan 17 16 15 15 14 12 12 13 12 12 12 12 9 8 9 10 9 9 10 9 9 8 7 6 6 6 8 9 9 7 5 5 4 5 6 7 7 8 8 9 8 8 8 8 8 9 8 8 7 6 4 5 4 4 5 8 8 11 13 13 13
19 23 26 24 22 24 27 30 29 30 31 31 33 36 37 31 23 22 22 19 20 18 15 12 12 16 16 16 15 12 11 11 13 16 15 13 12 10 10 10 9 9 9 8 8 10 10 8 5 5 5 8 11 12 11 9 8 9 10 11 10 9 9 9 9 10 10 9 7 7 6 6 5 5 5 5 5 6 6 9 10 11 15 14 16
23 22 27 30 28 26 26 26 25 25 22 25 29 30 29 31 36 31 23 21 21 21 18 14 11 11 14 15 14 12 10 9 16 18 18 16 13 11 10 11 11 10 9 9 8 7 7 7 7 6 6 5 9 11 11 10 9 8 8 9 11 11 11 10 10 10 9 8 8 7 6 5 4 4 4 3 5 5 7 11 12 14 13 13 12
25 25 28 31 33 33 31 28 28 27 25 26 30 31 27 26 20 17 19 17 21 20 18 17 16 13 11 11 13 12 10 9 13 19 20 19 15 11 10 9 9 10 10 9 9 8 7 6 6 nan 8 9 9 11 11 11 11 10 10 9 8 8 9 10 10 10 9 8 8 7 7 6 6 7 7 7 8 9 11 12 12 12 11 11 12
28 28 27 30 34 34 32 31 29 27 28 27 27 27 25 25 22 21 20 21 24 23 21 20 19 17 14 13 13 12 12 10 nan nan nan 19 18 13 10 9 8 8 9 10 9 9 9 9 7 7 nan 5 9 10 12 11 11 12 12 10 9 9 8 7 8 8 9 7 7 7 8 7 7 9 10 10 11 12 12 13 14 13 14 13 14
33 31 27 28 32 34 33 33 32 31 29 28 27 27 27 27 28 29 27 25 24 24 22 20 21 21 19 17 16 13 11 12 nan nan nan nan 17 15 10 8 7 7 9 10 10 10 10 10 9 9 9 9 10 11 14 14 12 10 9 10 10 7 6 6 6 nan 6 6 6 6 7 9 6 9 11 13 12 12 13 14 16 16 15 16 17
38 35 31 29 31 33 34 34 30 29 30 30 28 27 27 27 28 28 26 23 23 24 26 26 25 24 22 19 18 14 11 10 13 nan nan nan nan nan 12 8 7 8 8 10 12 11 12 11 10 10 11 11 12 11 10 14 16 14 12 10 10 10 10 10 11 12 10 9 8 7 7 8 8 8 10 13 13 14 15 15 17 19 19 18 17
42 40 36 33 33 33 34 34 30 26 28 30 30 29 26 26 26 27 26 23 24 25 25 25 23 24 25 24 19 19 15 11 10 14 nan nan 19 nan 15 11 9 8 9 10 11 12 12 12 13 13 12 13 13 12 13 14 13 13 14 13 13 13 12 12 12 13 12 12 11 10 10 10 10 10 12 13 14 16 17 16 18 20 20 18 18
44 43 40 37 35 34 34 33 26 24 27 29 28 29 29 25 24 26 26 25 23 22 22 22 23 22 21 21 22 21 17 16 13 16 18 18 20 nan 16 14 12 10 10 12 13 14 14 14 13 11 11 13 13 15 14 15 14 12 12 12 12 12 13 15 17 16 15 15 14 14 13 12 12 12 13 14 18 20 20 18 18 21 22 20 21
47 46 44 41 39 37 36 34 31 27 27 29 28 28 27 26 25 25 25 26 25 24 23 23 23 24 22 19 19 21 22 21 18 20 20 22 24 24 20 18 14 13 12 13 14 15 15 11 12 13 12 12 11 14 15 18 16 14 13 12 10 9 12 15 17 17 15 15 16 15 15 14 13 13 15 17 20 26 27 22 21 24 21 20 19
nan nan nan nan 44 42 41 39 36 33 32 31 30 29 29 27 25 25 25 26 25 27 26 25 23 23 23 21 20 20 22 21 19 24 23 24 25 23 23 21 18 15 15 15 16 17 17 14 11 12 13 13 11 13 16 19 16 15 14 13 9 8 12 19 18 16 20 21 17 17 16 14 15 17 17 18 20 26 27 25 25 25 23 22 21
nan nan nan nan nan nan nan 45 43 39 35 33 32 31 30 28 26 25 25 25 25 25 26 27 24 24 24 24 25 25 24 23 23 24 25 25 25 24 25 24 20 19 18 18 19 20 19 19 16 13 11 11 12 14 16 19 17 16 16 14 10 9 15 18 17 18 18 17 19 21 19 20 20 20 21 22 24 28 25 25 25 25 24 22 23
nan nan nan nan nan nan nan nan nan 43 40 39 36 34 33 30 27 26 26 26 27 28 29 31 28 25 29 33 31 29 30 35 39 40 23 22 26 25 25 23 23 24 23 21 21 20 20 21 21 20 18 15 14 14 16 18 18 17 16 14 13 14 19 18 18 16 19 19 19 20 22 23 22 24 25 26 26 27 27 25 24 24 23 22 23
nan nan nan nan nan nan nan nan nan nan 46 43 40 39 38 35 33 31 30 29 29 29 29 32 30 24 22 24 26 28 31 32 31 27 26 20 20 25 26 24 25 26 25 25 24 23 22 23 24 23 23 21 19 18 16 18 18 18 15 13 12 15 19 20 20 20 20 20 21 22 22 22 24 25 26 27 27 28 28 28 28 27 25 25 24
nan nan nan nan nan nan nan nan nan nan nan nan 44 42 41 39 38 36 34 32 31 30 32 32 30 26 25 23 22 24 30 29 27 22 14 17 20 21 20 24 27 27 27 26 25 25 27 26 25 22 24 24 23 21 20 19 20 18 15 15 16 16 20 22 21 21 20 20 21 21 21 23 23 24 26 27 26 26 26 27 28 29 28 26 26
nan nan nan nan nan nan nan nan nan nan nan nan 49 46 45 43 41 38 36 34 34 34 37 35 30 29 30 25 20 22 26 24 22 19 21 23 25 26 22 17 23 28 28 26 27 26 28 28 28 27 27 26 24 24 23 23 22 19 18 17 18 20 25 24 25 24 23 23 22 22 23 24 23 23 25 28 26 27 26 26 26 28 27 26 26
nan nan nan nan nan nan nan nan nan nan nan nan nan nan nan 46 45 43 40 38 37 37 39 38 33 33 32 28 25 23 24 24 24 28 33 32 27 26 23 21 18 19 28 30 27 27 28 36 41 41 39 34 30 29 27 23 19 19 20 21 22 30 29 28 28 28 26 25 25 24 23 24 25 24 24 25 26 25 26 25 26 26 26 22 22
nan nan nan nan nan nan nan nan nan nan nan nan nan nan nan nan 47 48 46 44 43 42 43 39 32 29 27 27 28 28 26 26 29 34 37 29 29 30 30 29 28 25 24 26 25 27 30 31 30 32 31 34 37 36 35 31 25 22 20 21 27 29 29 29 30 30 27 25 25 23 23 24 24 24 24 23 22 22 24 23 23 23 26 23 19
nan nan nan nan nan nan nan nan nan nan nan nan nan nan nan nan nan 51 48 46 46 50 49 44 38 31 28 29 31 31 30 30 33 32 29 32 37 41 43 38 31 28 27 26 27 24 20 22 27 27 28 25 27 30 31 31 31 30 30 28 27 26 27 29 30 29 26 25 23 22 22 22 23 23 24 24 21 21 24 23 20 20 22 22 20
nan nan nan nan nan nan nan nan nan nan nan nan nan nan nan nan nan nan 55 nan nan nan nan 45 41 38 33 30 29 29 30 33 32 31 36 41 38 36 36 34 32 30 25 23 25 26 25 25 25 27 27 26 25 30 31 31 30 29 30 30 28 26 25 25 26 25 23 24 22 21 21 22 20 20 22 21 20 21 24 23 21 20 22 22 19
nan nan nan nan nan nan nan nan nan nan nan nan nan nan nan nan nan nan nan nan nan nan nan nan nan nan nan 35 33 32 32 31 31 37 41 45 38 27 22 24 28 29 29 29 26 28 29 28 28 28 27 24 22 21 24 27 28 27 24 26 28 28 27 26 24 22 23 24 21 21 20 20 18 20 19 18 18 21 23 22 22 21 22 23 19
nan nan nan nan nan nan nan nan nan nan nan nan nan nan nan nan nan nan nan nan nan nan nan nan nan nan nan nan nan nan nan 34 34 30 29 33 29 22 21 17 16 20 23 25 28 28 28 27 27 28 27 24 20 21 22 24 26 27 26 25 25 25 26 24 22 21 24 24 22 22 19 19 18 20 21 19 19 20 21 21 21 23 23 23 21
nan nan nan nan nan nan nan nan nan nan nan nan nan nan nan nan nan nan nan nan nan nan nan nan nan nan nan nan nan nan nan nan nan nan nan 28 30 27 23 18 15 19 25 30 27 29 28 27 26 25 25 23 20 20 23 25 27 26 25 25 25 22 21 22 24 25 25 25 24 22 21 21 20 21 21 21 20 21 22 23 23 24 24 25 24
nan nan nan nan nan nan nan nan nan nan nan nan nan nan nan nan nan nan nan nan nan nan nan nan nan nan nan nan nan nan nan nan nan nan nan nan nan nan nan 18 20 28 26 27 24 25 27 26 24 24 25 22 22 22 23 24 26 26 25 23 23 24 24 21 24 26 27 26 26 25 24 24 24 22 21 21 22 23 24 25 26 27 27 27 26
nan nan nan nan nan nan nan nan nan nan nan nan nan nan nan nan nan nan nan nan nan nan nan nan nan nan nan nan nan nan nan nan nan nan nan nan nan nan nan nan nan 29 30 30 27 24 25 24 23 24 24 24 22 22 22 22 24 25 25 24 24 24 24 24 26 25 28 30 31 31 30 26 22 20 22 24 25 24 25 24 26 28 28 27 26
nan nan nan nan nan nan nan nan nan nan nan nan nan nan nan nan nan nan nan nan nan nan nan nan nan nan nan nan nan nan nan nan nan nan nan nan nan nan 29 25 28 30 32 28 27 26 26 24 22 22 23 24 23 21 21 22 25 25 25 24 24 25 25 26 30 35 43 47 42 31 24 23 23 21 24 30 32 30 29 28 29 28 28 27 27
nan nan nan nan nan nan nan nan nan nan nan nan nan nan nan nan nan nan nan nan nan nan nan nan nan nan nan nan nan nan nan nan nan nan 44 46 44 38 36 32 31 36 37 31 27 25 26 26 23 21 22 23 21 19 19 21 24 25 25 25 25 26 26 29 37 56 50 37 30 25 24 25 26 29 32 34 34 33 32 32 32 31 30 30 31
nan nan nan nan nan nan nan nan nan nan nan nan nan nan nan nan nan nan nan nan nan nan nan nan nan nan nan nan nan nan nan nan 46 42 39 42 47 51 44 35 32 32 33 34 31 27 26 26 26 24 24 23 22 20 20 22 23 25 26 25 26 26 28 33 54 55 42 32 29 29 31 32 33 34 38 39 37 35 36 37 37 35 33 32 33
nan nan nan nan nan nan nan nan nan nan nan nan nan nan nan nan nan nan nan nan nan nan nan nan nan nan nan nan nan nan 60 54 51 50 49 47 49 49 42 39 35 33 32 31 30 30 28 26 27 27 26 26 25 24 25 25 25 26 27 27 28 29 29 43 60 52 38 31 35 34 33 35 42 45 43 38 35 34 35 36 36 33 32 29 29
nan nan nan nan nan nan nan nan nan nan nan nan nan nan nan nan nan nan nan nan nan nan nan nan nan nan nan nan 71 nan nan nan nan nan nan 62 56 49 46 42 39 36 34 32 32 32 30 28 29 30 30 30 28 27 27 27 29 30 31 33 35 34 36 54 66 55 36 32 36 37 42 48 43 41 40 35 30 29 30 29 28 27 27 26 28
nan nan nan nan nan nan nan nan nan nan nan nan nan nan nan nan nan nan nan nan nan nan nan nan nan nan nan nan nan nan nan nan nan nan nan nan 54 52 49 46 43 40 38 37 37 39 39 36 35 35 35 35 35 35 36 38 39 40 40 40 37 36 40 56 60 50 36 33 36 42 48 44 40 40 41 36 28 28 30 28 26 27 28 29 31
nan nan nan nan nan nan nan nan nan nan nan nan nan nan nan nan nan nan nan nan nan nan nan nan nan nan nan nan nan nan nan nan nan nan nan nan nan 55 54 52 52 51 48 45 46 45 45 43 43 44 45 48 48 47 47 47 47 48 48 48 46 44 46 55 53 47 39 38 41 43 41 40 37 38 38 35 30 30 31 28 26 28 30 31 33
nan nan nan nan nan nan nan nan nan nan nan nan nan nan nan nan nan nan nan nan nan nan nan nan nan nan nan nan nan nan nan nan nan nan nan nan nan nan nan nan nan 54 51 49 48 48 47 46 46 46 47 49 50 49 48 48 49 49 50 51 51 51 52 53 51 49 43 40 40 42 41 38 40 40 35 33 33 34 36 34 29 27 28 31 35
nan nan nan nan nan nan nan nan nan nan nan nan nan nan nan nan nan nan nan nan nan nan nan nan nan nan nan nan nan nan nan nan nan nan nan nan nan nan nan nan nan nan nan 53 51 50 50 49 48 48 49 50 51 50 49 49 49 48 50 52 53 51 50 51 52 51 47 43 40 40 38 38 39 41 36 34 35 38 39 36 32 29 30 33 42
nan nan nan nan nan nan nan nan nan nan nan nan nan nan nan nan nan nan nan nan nan nan nan nan nan nan nan nan nan nan nan nan nan nan nan nan nan nan nan nan nan nan nan nan 54 53 51 51 50 50 51 51 51 51 51 50 51 49 49 50 52 52 50 49 49 49 49 46 42 41 40 38 37 37 37 37 37 37 36 32 29 30 33 40 45
nan nan nan nan nan nan nan nan nan nan nan nan nan nan nan nan nan nan nan nan nan nan nan nan nan nan nan nan nan nan nan nan nan nan nan nan nan nan nan nan nan nan nan nan nan nan nan nan 52 nan nan 53 53 52 50 51 52 51 48 48 50 50 48 48 48 50 52 51 48 44 41 38 36 35 36 37 38 37 34 32 31 31 33 37 42
nan nan nan nan nan nan nan nan nan nan nan nan nan nan nan nan nan nan nan nan nan nan nan nan nan nan nan nan nan nan nan nan nan nan nan nan nan nan nan nan nan nan nan nan nan nan nan nan nan nan nan nan nan nan 52 50 51 50 48 47 48 50 49 49 50 50 50 48 46 45 44 42 38 37 38 40 41 41 39 34 32 32 33 37 42
nan nan nan nan nan nan nan nan nan nan nan nan nan nan nan nan nan nan nan nan nan nan nan nan nan nan nan nan nan nan nan nan nan nan nan nan nan nan nan nan nan nan nan nan nan nan nan nan nan nan nan nan 55 54 53 51 51 50 48 47 47 49 50 51 51 49 48 48 46 44 43 42 40 39 37 38 40 39 36 36 35 35 35 36 39
nan nan nan nan nan nan nan nan nan nan nan nan nan nan nan nan nan nan nan nan nan nan nan nan nan nan nan nan nan nan nan nan nan nan nan nan nan nan nan nan nan nan nan nan nan nan nan nan nan nan nan 55 54 55 56 55 54 52 51 50 51 52 52 52 49 46 46 46 46 44 42 42 40 40 38 38 38 39 38 37 37 36 37 38 39
nan nan nan nan nan nan nan nan nan nan nan nan nan nan nan nan nan nan nan nan nan nan nan nan nan nan nan nan nan nan nan nan nan nan nan nan nan nan nan nan nan nan nan nan nan nan nan nan nan nan nan nan nan nan nan 57 56 54 53 52 51 51 48 47 48 47 48 47 45 43 42 41 40 39 38 37 37 38 37 39 40 41 42 43 44
nan nan nan nan nan nan nan nan nan nan nan nan nan nan nan nan nan nan nan nan nan nan nan nan nan nan nan nan nan nan nan nan nan nan nan nan nan nan nan nan nan nan nan nan nan nan nan nan nan nan nan nan nan nan nan 58 57 56 55 55 54 50 46 44 45 48 44 45 45 44 43 41 41 42 43 44 46 48 48 49 49 48 49 50 51
nan nan nan nan nan nan nan nan nan nan nan nan nan nan nan nan nan nan nan nan nan nan nan nan nan nan nan nan nan nan nan nan nan nan nan nan nan nan nan nan nan nan nan nan nan nan nan nan nan nan nan nan nan nan nan 58 56 55 53 52 50 49 50 49 46 48 47 52 52 nan nan nan nan nan nan nan nan nan nan 51 51 52 52 53 54
nan nan nan nan nan nan nan nan nan nan nan nan nan nan nan nan nan nan nan nan nan nan nan nan nan nan nan nan nan nan nan nan nan nan nan nan nan nan nan nan nan nan nan nan nan nan nan nan nan nan nan nan nan nan nan nan nan 53 51 51 54 55 55 54 nan nan nan nan nan nan nan nan nan nan nan nan nan nan nan nan nan nan nan 53 53
Wind_Direction
231 233 238 238 238 248 250 249 256 251 255 255 262 259 252 249 254 240 245 250 259 268 261 258 273 286 302 302 315 297 296 301 286 275 283 222 141 158 158 251 333 7 296 132 119 164 184 214 210 208 195 188 184 180 182 194 252 282 246 242 175 216 209 200 186 167 182 184 186 189 178 202 208 235 233 260 256 267 289 274 269 281 295 306 294
244 234 233 227 229 240 241 248 248 248 257 259 262 265 263 254 256 249 260 255 260 277 278 283 274 284 298 299 294 292 299 297 322 283 282 255 76 101 111 154 179 197 171 360 64 112 153 193 227 196 205 197 184 162 172 146 133 68 327 61 190 181 228 211 187 186 175 194 184 193 196 200 189 229 242 239 239 250 260 270 272 281 304 292 295
229 229 227 222 204 210 232 236 245 254 263 260 270 272 273 272 259 262 265 269 264 266 281 290 281 283 289 288 294 295 292 307 311 308 299 304 316 93 58 320 324 133 38 57 74 67 67 104 138 199 154 193 210 190 171 171 170 166 172 184 186 172 191 174 180 176 167 174 191 181 196 209 210 207 211 224 242 258 268 277 287 276 265 279 298
222 234 236 221 227 210 194 218 249 255 265 264 272 273 273 276 272 273 275 273 279 269 270 285 283 285 291 289 296 297 297 302 312 324 317 312 312 309 174 246 301 323 1 26 30 39 58 62 74 93 147 191 207 202 200 197 193 176 166 159 160 162 164 170 169 165 172 156 179 184 187 181 197 204 206 213 220 242 265 275 286 295 292 284 280
238 239 243 251 239 235 212 181 208 249 264 265 280 281 277 278 277 283 283 278 280 280 271 273 281 286 296 295 296 303 310 309 307 324 332 325 319 315 305 269 254 278 299 300 351 2 16 37 45 47 64 126 181 207 217 212 210 205 198 193 193 193 192 174 152 167 176 168 176 197 198 206 215 223 236 235 255 268 266 272 279 280 284 292 285
233 233 234 243 246 238 234 212 183 227 251 263 276 282 278 276 280 278 279 275 270 281 284 281 281 289 293 298 299 302 306 310 311 317 331 332 326 323 313 306 301 281 272 283 287 296 280 320 25 45 53 41 61 110 214 210 223 228 227 220 215 216 220 222 237 236 232 225 222 215 231 228 237 253 260 265 265 267 275 281 277 278 282 284 290
228 232 231 235 242 235 234 240 206 189 224 243 256 269 279 282 281 281 275 272 274 278 290 289 284 287 295 299 305 303 304 310 306 310 316 313 315 324 326 318 313 305 303 303 302 293 294 282 277 279 174 148 126 151 187 210 230 224 227 232 235 241 237 228 237 246 256 258 256 263 261 268 279 272 274 280 278 283 286 285 280 283 287 293 292
226 221 215 214 215 211 223 226 204 187 200 218 234 249 263 268 267 265 273 276 277 280 nan 295 292 293 297 303 302 299 302 306 304 303 308 309 303 306 318 323 325 319 315 313 316 313 303 305 305 295 304 301 298 248 255 223 233 227 242 245 244 242 238 242 242 245 252 259 269 269 275 270 268 267 267 265 266 274 314 319 320 304 308 299 306
225 222 218 210 205 209 222 229 219 204 202 201 203 214 229 243 247 249 262 272 277 274 273 nan 293 300 300 300 303 305 310 313 308 306 305 309 306 305 308 315 322 319 321 326 322 319 308 303 301 297 289 314 334 327 321 305 271 257 246 246 245 245 247 253 257 254 248 250 252 259 261 260 261 262 279 300 330 354 322 309 313 315 308 307 315
236 225 225 219 217 218 237 245 242 231 218 222 221 215 208 210 229 242 240 250 259 263 262 258 269 294 299 299 301 310 309 312 317 331 322 310 310 314 309 307 313 317 319 316 325 327 330 328 316 338 325 319 323 328 329 331 316 284 266 261 261 261 262 261 263 266 267 267 271 270 267 276 278 290 300 310 320 314 308 302 304 305 305 312 307
248 245 234 232 235 236 239 242 248 252 248 245 248 239 225 226 219 211 227 245 248 252 252 258 260 261 288 298 302 309 313 314 327 325 328 331 317 313 310 305 309 315 318 314 315 320 314 312 305 309 302 289 280 309 321 326 321 316 307 296 286 273 262 268 273 276 276 276 274 274 277 277 295 300 308 299 306 307 303 288 281 283 290 296 303
250 246 235 228 226 228 232 239 242 238 236 236 242 247 252 254 251 246 225 240 261 259 259 259 252 247 248 272 296 302 303 319 321 324 326 330 327 312 310 305 303 306 313 317 312 312 314 313 309 nan 283 285 284 286 306 325 328 329 335 334 331 319 301 281 268 263 273 276 275 279 269 273 277 280 278 276 276 276 282 281 290 292 298 305 307
246 248 243 234 229 227 226 227 233 241 239 240 249 251 237 228 240 251 251 244 245 257 267 267 263 259 251 238 243 274 292 315 nan nan nan 325 329 323 300 300 307 305 302 305 305 298 293 298 299 285 nan 304 295 286 286 297 323 341 340 343 339 334 331 328 306 292 262 251 263 274 285 281 290 295 294 291 286 287 284 290 295 301 306 313 315
243 243 242 237 234 235 231 230 231 232 234 238 241 246 250 250 235 230 238 245 251 250 241 253 262 264 262 251 241 234 242 278 nan nan nan nan 322 315 297 301 294 292 290 294 296 299 296 293 291 290 284 269 258 259 264 279 283 284 286 281 281 294 313 328 331 nan 308 294 283 286 293 290 304 293 290 282 281 287 291 297 297 301 305 313 310
244 242 240 238 235 234 235 234 232 233 231 230 233 239 245 247 247 246 244 248 255 254 253 249 247 244 249 256 252 242 236 223 269 nan nan nan nan nan 295 301 281 273 274 270 268 270 276 289 296 299 291 285 280 274 264 264 274 282 283 286 289 285 287 294 294 294 298 297 311 324 315 308 309 307 295 293 293 292 295 300 303 303 305 304 304
247 246 243 238 237 239 237 230 228 232 230 226 225 228 237 245 247 248 248 248 248 251 253 254 257 258 259 257 251 243 243 241 247 279 nan nan 309 nan 289 291 283 270 267 267 265 265 264 263 263 268 274 280 292 308 291 274 267 269 277 280 279 282 288 296 311 309 309 306 313 319 316 326 330 314 304 301 298 298 300 305 305 304 309 313 316
250 249 247 245 243 245 253 248 241 239 234 228 227 227 229 238 246 249 249 247 246 249 252 256 259 261 264 272 279 281 271 264 266 278 287 295 280 nan 283 281 281 279 268 265 264 264 264 262 263 259 263 264 275 292 298 291 274 274 269 267 268 272 278 281 307 325 326 331 332 335 343 342 337 334 326 324 310 300 292 292 299 296 301 307 307
249 249 250 249 250 248 249 256 260 257 247 240 236 233 233 236 237 246 248 245 244 244 245 248 250 252 248 245 259 269 273 272 272 280 286 289 287 274 277 277 275 274 266 265 264 260 261 270 268 264 262 263 275 286 292 287 278 278 274 270 266 269 270 270 265 283 319 327 330 333 330 329 330 323 313 310 311 296 298 306 304 296 302 307 307
nan nan nan nan 250 251 252 253 256 255 253 249 247 244 243 241 240 240 242 245 244 244 242 241 243 248 247 234 225 234 246 258 270 279 284 286 283 272 276 275 277 273 270 265 265 262 263 266 274 272 268 269 282 284 289 287 281 282 280 277 277 272 266 263 269 271 273 279 277 280 279 284 287 291 299 313 309 297 295 300 297 300 305 309 308
nan nan nan nan nan nan nan 254 253 253 254 254 254 255 255 252 247 241 239 240 241 243 243 242 239 244 248 243 233 226 222 226 235 260 278 280 284 271 265 269 270 271 268 263 261 264 267 268 273 285 290 287 285 288 291 295 286 281 280 286 287 281 266 268 274 272 269 273 278 288 296 295 297 297 294 293 293 296 299 299 300 303 306 306 305
nan nan nan nan nan nan nan nan nan 254 255 258 258 258 259 260 257 254 248 245 244 246 245 241 240 244 248 247 243 237 231 221 219 210 219 264 281 274 260 263 261 261 260 259 258 259 260 264 266 279 294 296 294 294 291 294 293 284 287 290 292 276 267 273 275 281 277 278 279 279 284 288 290 290 290 290 294 295 300 307 308 309 309 310 308
nan nan nan nan nan nan nan nan nan nan 256 257 259 259 261 261 261 263 266 264 261 259 254 248 246 250 256 258 255 252 254 255 245 225 209 222 249 278 259 255 258 256 256 254 254 255 256 256 258 268 288 295 297 299 303 298 301 288 294 307 301 286 279 276 273 271 271 272 272 275 278 280 284 286 287 289 293 298 304 308 312 315 313 314 316
nan nan nan nan nan nan nan nan nan nan nan nan 256 257 259 259 261 264 264 263 261 261 262 257 256 259 260 263 259 248 245 250 272 270 262 264 267 249 246 250 260 257 254 253 254 252 252 252 253 260 276 287 294 298 300 307 295 291 309 304 299 299 287 283 284 283 279 277 276 276 276 274 273 279 284 287 290 294 300 303 309 311 312 315 317
nan nan nan nan nan nan nan nan nan nan nan nan 256 257 259 261 260 261 263 263 263 265 266 269 270 265 261 263 267 260 251 248 249 244 237 249 262 273 271 251 236 246 251 252 253 254 253 254 253 249 253 272 282 289 295 297 292 305 306 309 309 304 292 292 289 288 284 282 281 278 277 279 281 281 282 286 289 289 294 294 293 302 308 309 314
nan nan nan nan nan nan nan nan nan nan nan nan nan nan nan 261 262 262 261 261 262 263 267 269 267 264 264 267 268 263 254 251 246 242 238 233 250 260 263 267 271 261 247 247 250 252 251 250 251 252 255 261 269 268 264 271 286 296 306 312 309 292 296 295 292 287 286 286 283 282 284 287 287 287 286 285 287 287 288 287 288 287 296 303 303
nan nan nan nan nan nan nan nan nan nan nan nan nan nan nan nan 264 264 262 259 257 256 255 254 254 259 262 262 264 261 252 247 244 247 252 258 256 256 254 240 228 229 240 239 235 229 228 232 242 250 256 263 265 267 270 275 285 294 297 293 284 286 293 291 288 287 288 288 287 288 286 282 284 287 288 287 287 290 287 286 287 288 291 295 296
nan nan nan nan nan nan nan nan nan nan nan nan nan nan nan nan nan 257 259 259 257 257 260 258 254 251 247 247 250 251 250 249 256 262 264 258 252 251 252 246 244 241 235 240 242 245 241 245 253 254 254 254 262 267 270 275 274 273 274 277 282 285 287 287 287 289 292 290 286 284 281 280 279 282 286 289 293 291 290 291 291 293 294 295 301
nan nan nan nan nan nan nan nan nan nan nan nan nan nan nan nan nan nan 256 nan nan nan nan 254 256 254 251 250 253 256 256 254 257 261 258 255 252 251 250 251 252 250 250 257 258 253 251 247 242 243 246 248 259 269 271 270 269 269 271 275 279 283 286 290 291 289 288 285 282 279 275 277 279 280 279 283 286 285 285 289 293 295 297 297 300
nan nan nan nan nan nan nan nan nan nan nan nan nan nan nan nan nan nan nan nan nan nan nan nan nan nan nan 255 255 257 262 262 264 271 265 263 259 258 259 264 260 256 258 256 258 261 259 257 258 261 258 253 255 262 262 262 263 267 270 273 274 279 284 288 291 293 286 282 282 279 276 274 274 274 275 274 274 275 277 283 290 295 295 299 306
nan nan nan nan nan nan nan nan nan nan nan nan nan nan nan nan nan nan nan nan nan nan nan nan nan nan nan nan nan nan nan 261 258 252 250 256 269 289 286 276 281 277 265 254 262 264 266 263 267 271 268 263 261 262 260 258 259 261 265 271 274 276 281 288 290 287 282 282 279 276 273 269 266 268 269 270 267 270 276 284 286 292 297 301 304
nan nan nan nan nan nan nan nan nan nan nan nan nan nan nan nan nan nan nan nan nan nan nan nan nan nan nan nan nan nan nan nan nan nan nan 261 265 271 278 287 286 279 272 266 269 273 268 264 264 266 265 259 255 255 254 252 251 254 257 263 271 277 277 275 277 276 275 274 275 274 272 271 267 265 266 272 279 285 290 296 301 302 304 304 307
nan nan nan nan nan nan nan nan nan nan nan nan nan nan nan nan nan nan nan nan nan nan nan nan nan nan nan nan nan nan nan nan nan nan nan nan nan nan nan 267 274 269 265 274 272 274 275 271 260 253 253 252 248 244 247 250 253 254 256 259 263 266 271 271 268 268 270 270 268 266 265 264 264 269 280 291 298 299 300 301 303 304 302 302 306
nan nan nan nan nan nan nan nan nan nan nan nan nan nan nan nan nan nan nan nan nan nan nan nan nan nan nan nan nan nan nan nan nan nan nan nan nan nan nan nan nan 268 270 275 275 269 272 272 262 250 245 244 241 238 241 244 246 248 251 253 254 258 260 262 270 267 265 263 258 250 249 260 275 293 305 304 298 292 289 290 290 290 292 297 301
nan nan nan nan nan nan nan nan nan nan nan nan nan nan nan nan nan nan nan nan nan nan nan nan nan nan nan nan nan nan nan nan nan nan nan nan nan nan 269 262 255 268 282 279 277 271 267 267 264 256 250 246 239 233 231 236 241 244 247 249 250 249 251 251 256 256 246 241 242 250 269 289 299 295 280 273 274 276 279 281 281 285 290 295 299
nan nan nan nan nan nan nan nan nan nan nan nan nan nan nan nan nan nan nan nan nan nan nan nan nan nan nan nan nan nan nan nan nan nan 253 260 268 271 267 259 255 264 270 273 275 271 268 265 261 255 249 245 242 236 229 230 237 241 243 247 252 255 257 260 255 254 261 269 278 284 281 279 272 264 265 269 272 273 275 278 282 288 291 292 294
nan nan nan nan nan nan nan nan nan nan nan nan nan nan nan nan nan nan nan nan nan nan nan nan nan nan nan nan nan nan nan nan 255 259 260 266 271 274 265 263 261 262 265 270 274 276 273 264 257 250 245 242 238 236 233 232 235 240 246 250 253 257 260 261 261 264 271 280 282 274 267 265 267 267 264 263 267 273 278 282 284 287 288 287 289
nan nan nan nan nan nan nan nan nan nan nan nan nan nan nan nan nan nan nan nan nan nan nan nan nan nan nan nan nan nan 261 261 260 258 259 261 269 268 264 264 261 259 260 260 263 268 271 268 261 252 246 241 237 235 235 236 238 242 246 250 253 253 255 255 263 267 269 273 272 271 274 272 263 259 258 263 269 274 278 280 282 285 286 289 288
nan nan nan nan nan nan nan nan nan nan nan nan nan nan nan nan nan nan nan nan nan nan nan nan nan nan nan nan 250 nan nan nan nan nan nan 261 261 261 262 262 262 260 257 255 255 256 259 261 259 256 251 247 244 242 243 243 245 246 246 247 250 252 250 262 269 267 273 277 282 285 281 273 276 283 284 282 281 281 281 284 285 286 290 296 295
nan nan nan nan nan nan nan nan nan nan nan nan nan nan nan nan nan nan nan nan nan nan nan nan nan nan nan nan nan nan nan nan nan nan nan nan 256 259 259 259 259 258 256 253 250 247 244 242 242 246 249 248 245 244 244 243 243 245 246 248 249 251 253 263 272 281 287 288 278 276 278 281 283 286 287 286 288 291 293 293 294 295 297 297 297
nan nan nan nan nan nan nan nan nan nan nan nan nan nan nan nan nan nan nan nan nan nan nan nan nan nan nan nan nan nan nan nan nan nan nan nan nan 252 253 253 253 252 252 252 252 251 248 243 239 238 240 242 243 243 244 244 244 244 246 248 249 250 255 269 276 283 284 278 277 286 291 294 291 284 284 287 288 287 288 288 286 290 294 297 297
nan nan nan nan nan nan nan nan nan nan nan nan nan nan nan nan nan nan nan nan nan nan nan nan nan nan nan nan nan nan nan nan nan nan nan nan nan nan nan nan nan 254 252 251 251 252 252 249 245 241 240 242 245 247 248 249 249 248 249 250 251 253 256 265 271 275 277 277 277 284 293 296 292 288 290 293 291 285 281 279 279 284 291 293 296
nan nan nan nan nan nan nan nan nan nan nan nan nan nan nan nan nan nan nan nan nan nan nan nan nan nan nan nan nan nan nan nan nan nan nan nan nan nan nan nan nan nan nan 252 251 251 251 251 250 248 246 245 246 247 248 250 252 254 254 253 251 253 256 260 263 265 267 269 271 272 273 280 283 289 293 289 285 284 286 288 291 293 293 292 281
nan nan nan nan nan nan nan nan nan nan nan nan nan nan nan nan nan nan nan nan nan nan nan nan nan nan nan nan nan nan nan nan nan nan nan nan nan nan nan nan nan nan nan nan 251 251 251 251 251 251 250 250 250 249 249 250 251 254 256 254 252 253 256 258 262 268 273 276 274 271 270 271 272 275 278 282 285 285 285 284 284 285 284 280 278
nan nan nan nan nan nan nan nan nan nan nan nan nan nan nan nan nan nan nan nan nan nan nan nan nan nan nan nan nan nan nan nan nan nan nan nan nan nan nan nan nan nan nan nan nan nan nan nan 251 nan nan 252 252 252 253 253 252 254 256 253 251 252 255 257 259 263 267 271 275 276 278 277 278 279 279 279 280 281 280 277 276 279 281 284 288
nan nan nan nan nan nan nan nan nan nan nan nan nan nan nan nan nan nan nan nan nan nan nan nan nan nan nan nan nan nan nan nan nan nan nan nan nan nan nan nan nan nan nan nan nan nan nan nan nan nan nan nan nan nan 253 255 256 257 257 254 251 253 256 257 258 260 262 267 271 274 277 277 276 278 281 283 285 285 283 280 279 279 281 283 288
nan nan nan nan nan nan nan nan nan nan nan nan nan nan nan nan nan nan nan nan nan nan nan nan nan nan nan nan nan nan nan nan nan nan nan nan nan nan nan nan nan nan nan nan nan nan nan nan nan nan nan nan 253 254 255 256 257 259 259 258 255 256 257 259 260 261 264 267 269 270 272 274 277 277 277 276 278 282 286 288 288 291 290 289 290
nan nan nan nan nan nan nan nan nan nan nan nan nan nan nan nan nan nan nan nan nan nan nan nan nan nan nan nan nan nan nan nan nan nan nan nan nan nan nan nan nan nan nan nan nan nan nan nan nan nan nan 254 253 253 254 254 254 256 257 258 258 259 260 261 263 266 268 270 271 272 272 275 276 278 279 280 282 284 287 287 287 287 287 289 289
nan nan nan nan nan nan nan nan nan nan nan nan nan nan nan nan nan nan nan nan nan nan nan nan nan nan nan nan nan nan nan nan nan nan nan nan nan nan nan nan nan nan nan nan nan nan nan nan nan nan nan nan nan nan nan 255 255 256 258 260 262 261 257 257 265 270 272 272 270 269 269 270 271 272 275 277 278 278 278 276 277 278 279 281 284
nan nan nan nan nan nan nan nan nan nan nan nan nan nan nan nan nan nan nan nan nan nan nan nan nan nan nan nan nan nan nan nan nan nan nan nan nan nan nan nan nan nan nan nan nan nan nan nan nan nan nan nan nan nan nan 256 255 255 255 257 256 252 252 254 263 264 266 269 269 267 267 269 269 269 268 270 271 272 273 273 273 275 276 276 276
nan nan nan nan nan nan nan nan nan nan nan nan nan nan nan nan nan nan nan nan nan nan nan nan nan nan nan nan nan nan nan nan nan nan nan nan nan nan nan nan nan nan nan nan nan nan nan nan nan nan nan nan nan nan nan 257 256 255 256 255 253 253 253 252 254 252 255 260 259 nan nan nan nan nan nan nan nan nan nan 273 274 275 275 275 275
nan nan nan nan nan nan nan nan nan nan nan nan nan nan nan nan nan nan nan nan nan nan nan nan nan nan nan nan nan nan nan nan nan nan nan nan nan nan nan nan nan nan nan nan nan nan nan nan nan nan nan nan nan nan nan nan nan 256 254 251 249 248 247 248 nan nan nan nan nan nan nan nan nan nan nan nan nan nan nan nan nan nan nan 275 276